This demonstration page uses our WeatherBlox Daily Observations layout. Learn more.

Left ArrowRight Arrow

40.97296, -117.73568

Hourly Observations for May 16, 2022

Temp ( °F °C ) Dew Point ( °F °C ) Humidity (%) Winds ( mph kmh ) Pressure ( in mb ) Visibility ( mi km ) Precip ( " mm )
12:56 am 00:56 Partly Cloudy 61 16.1 34 1.1 36 36 SSE 3 6 29.87 1011 10 16 0.00 0.00
1:56 am 01:56 Mostly Clear 61 16.1 34 1.1 36 36 Calm 29.85 1011 10 16 0.00 0.00
2:56 am 02:56 Clear 57 13.9 37 2.8 47 47 SSW 6 9 29.85 1011 10 16 0.00 0.00
3:56 am 03:56 Clear 56 13.3 36 2.2 47 47 Calm 29.86 1011 10 16 0.00 0.00
4:56 am 04:56 Clear 56 13.3 35 1.7 46 46 VRB 3 6 29.86 1011 10 16 0.00 0.00
5:56 am 05:56 Sunny 51 10.6 35 1.7 54 54 Calm 29.88 1012 10 16 0.00 0.00
6:56 am 06:56 Sunny 60 15.6 38 3.3 44 44 Calm 29.90 1012 10 16 0.00 0.00
7:56 am 07:56 Sunny 64 17.8 38 3.3 38 38 Calm 29.90 1013 10 16 0.00 0.00
8:56 am 08:56 Sunny 69 20.6 40 4.4 35 35 W 8 13 29.89 1012 10 16 0.00 0.00
9:56 am 09:56 Sunny 72 22.2 40 4.4 31 31 WNW 10 17 29.88 1012 10 16 0.00 0.00
10:56 am 10:56 Sunny 76 24.4 38 3.3 25 25 W 15 24 29.86 1011 10 16 0.00 0.00
11:56 am 11:56 Sunny 76 24.4 38 3.3 25 25 VRB 5 7 29.85 1011 10 16 0.00 0.00
12:56 pm 12:56 Sunny 79 26.1 36 2.2 21 21 WSW 17 28 29.84 1011 10 16 0.00 0.00
1:56 pm 13:56 Sunny 81 27.2 32 0 17 17 W 7 11 29.82 1010 10 16 0.00 0.00
2:56 pm 14:56 Sunny 79 26.1 28 -2.2 15 15 VRB 5 7 29.82 1010 10 16 0.00 0.00
3:56 pm 15:56 Mostly Sunny 79 26.1 28 -2.2 15 15 W 16 26 29.82 1010 10 16 0.00 0.00
4:56 pm 16:56 Sunny 78 25.6 21 -6.1 12 12 WNW 21 33 29.82 1010 10 16 0.00 0.00
5:56 pm 17:56 Sunny 75 23.9 24 -4.4 15 15 WNW 13 20 29.84 1010 10 16 0.00 0.00
6:56 pm 18:56 Sunny 74 23.3 25 -3.9 16 16 WNW 8 13 29.82 1010 10 16 0.00 0.00
7:56 pm 19:56 Sunny 70 21.1 27 -2.8 20 20 WSW 3 6 29.83 1010 10 16 0.00 0.00
8:56 pm 20:56 Clear 65 18.3 22 -5.6 19 19 NNW 5 7 29.85 1011 10 16 0.00 0.00
9:56 pm 21:56 Clear 58 14.4 22 -5.6 25 25 VRB 3 6 29.87 1012 10 16 0.00 0.00
10:56 pm 22:56 Clear 59 15 27 -2.8 29 29 NE 3 6 29.87 1011 10 16 0.00 0.00
11:56 pm 23:56 Clear 59 15 34 1.1 39 39 N 12 19 29.88 1012 10 16 0.00 0.00

Powered by AerisWeather